Regional Weather Roundup
Issued by NWS

Home | Current Version | Previous Version | Text Only | Print | Product List | Glossary On
Versions: 1 2 3 4 5 6 7 8 9 10 11 12 13 14 15 16 17 18 19 20 21 22 23 24 25 26 27 28 29 30 31 32 33 34 35 36 37 38 39 40 41 42 43 44 45 46 47 48 49 50
000
ASUS45 KTFX 231419
RWRMT
MONTANA HOURLY WEATHER ROUNDUP
NATIONAL WEATHER SERVICE GREAT FALLS MT
819 AM MDT WED JUL 23 2014

NOTE: "FAIR" INDICATES FEW OR NO CLOUDS BELOW 12000 FEET WITH NO
SIGNIFICANT WEATHER AND/OR OBSTRUCTIONS TO VISIBILITY.

* THESE STATIONS ARE NOT UNDER NWS QUALITY CONTROL. THEY DO NOT
   REPORT WEATHER SUCH AS PRECIPITATION OR FOG.

MTZ001>007-043-231500-
WEST OF THE DIVIDE
CITY           SKY/WX    TMP DP  RH WIND       PRES   REMARKS
KALISPELL      CLOUDY    59  55  87 NW3       30.14F
MISSOULA       LGT RAIN  61  57  87 S9        30.14F
BUTTE          PTCLDY    61  50  67 NE3       30.32R
MULLAN PASS    PTCLDY    52  46  80 SE10G20   30.19F
* ESSEX        N/A       55  52  90 NE1        N/A
* LINCOLN      N/A       54  53  96 NW3        N/A
* LOOKOUT PASS N/A       52  52 100 S4         N/A
* POLSON       N/A       58  54  87 W2         N/A
* RONAN APT    CLOUDY    57  57 100 N/A        N/A
* SEELEY LAKE  N/A       56  55  96 S3         N/A
* THOMP F APT  PTCLDY    61  41  48 NW5G13     N/A
* YAAK HILL    N/A       59  55  87 N/A        N/A
$$

MTZ008-052>055-231500-
SOUTHWEST MONTANA
CITY           SKY/WX    TMP DP  RH WIND       PRES   REMARKS
BOZEMAN        PTCLDY    63  52  68 S3        30.23R
DILLON         PTCLDY    63  48  58 SE7       30.26R
W YELLOWSTONE  PTSUNNY   54  45  72 CALM      30.32R
* THREE FORKS  PTCLDY    59  34  39 N/A        N/A
* BOULDER HILL N/A       61  47  60 N4         N/A
* MONIDA PASS  N/A       56  43  62 W16G24     N/A
* RAYNOLDS PAS N/A       52   3  13 N5         N/A
* WHITEHALL    N/A       64  50  61 NW3G9      N/A
* WISE RIVER   N/A       52  49  90 W5         N/A
$$

MTZ009>010-012-014-046-048-049-054-231500-
EAST SLOPES AND CENTRAL MONTANA
CITY           SKY/WX    TMP DP  RH WIND       PRES   REMARKS
CUT BANK       CLOUDY    55  54  96 SE8       30.18R
GREAT FALLS    TSTM      59  57  93 SW7       30.18R
HELENA         PTSUNNY   66  55  68 CALM      30.22S
* CONRAD       CLOUDY    59  59 100 NE8        N/A
* DEARBORN     N/A       61  58  90 SW2        N/A
* EAST GLACIER N/A       58  48  70 W11        N/A
* MONARCH      N/A       60  47  62 SE2        N/A
* ROGERS PASS  N/A       57  53  87 SW4        N/A
* SAINT MARY   N/A       54  53  96 S5G10      N/A
* SWEET GRASS  N/A       62  57  84 S11        N/A
* WHITE SULPH  N/A       62  53  73 W2G10      N/A
$$

MTZ011-013-016-021-035-040-045-047-050-051-231500-
NORTH CENTRAL MONTANA
CITY           SKY/WX    TMP DP  RH WIND       PRES   REMARKS
HAVRE          PTSUNNY   64  54  70 SE3       30.16R
LEWISTOWN      PTSUNNY   64  55  73 W7        30.19R
* FORT BENTON  CLOUDY    66  55  68 E6        30.16F
* CHESTER      N/A       63  56  78 S5G10      N/A
* DENTON       N/A       67  58  73 SE1        N/A
* GEYSER       N/A       64  53  68 SW8G14     N/A
* JUDITH GAP   N/A       64  60  87 N/A        N/A
* LOMA         N/A       66  56  70 NW10G17    N/A
$$

MTZ017>020-022>027-061-062-231500-
NORTHEAST MONTANA
CITY           SKY/WX    TMP DP  RH WIND       PRES   REMARKS
GLASGOW        PTCLDY    70  61  73 E16       30.16F
GLENDIVE       SUNNY     66  61  84 SE5       30.21F
JORDAN         PTCLDY    66  61  84 E8        30.16F
SIDNEY         PTCLDY    72  63  73 E3        30.22F
WOLF POINT     PTCLDY    66  61  84 E13       30.18F
* BEAVER HILL  N/A       65  60  84 SE13G19    N/A
* CIRCLE       N/A       68  63  84 NE4        N/A
* LINDSAY DVD  N/A       63  61  93 E6         N/A
* NAVAJO       N/A       62  60  93 E8         N/A
* SACO         N/A       66  59  78 NE9        N/A
$$

MTZ028>042-056>058-231500-
SOUTHCENTRAL AND SOUTHEAST MONTANA
CITY           SKY/WX    TMP DP  RH WIND       PRES   REMARKS
BAKER          PTCLDY    66  61  84 SE10      30.24R
BILLINGS       FOG       63  57  81 CALM      30.15S
LIVINGSTON     PTCLDY    63  52  68 W7        30.21R
MILES CITY     SUNNY     68  63  84 NE5       30.19F
* LAUREL APT   PTSUNNY   61  54  78 N/A        N/A
* ROUNDUP APT  PTCLDY    63  57  81 SE5        N/A
* ALZADA       N/A       67  61  81 N/A        N/A
* HYSHAM       N/A       67  59  76 NE7        N/A
* LAME DEER    N/A       66  58  76 SE14G21    N/A
* REED POINT   N/A       59  56  90 W4         N/A
* ROSCOE HILL  N/A       62  45  54 SE7        N/A
$$

REGIONAL REPORTS...DAKOTAS
CITY           SKY/WX    TMP DP  RH WIND       PRES   REMARKS
WILLISTON      PTSUNNY   70  63  79 E7        30.22S
DICKINSON      SUNNY     68  63  84 SE12      30.23R
CROSBY         PTSUNNY   64  64 100 E14       30.26F
TIOGA          PTCLDY    70  70 100 E13       30.28F
WATFORD CITY   SUNNY     68  64  87 SE7       30.21S
BISMARCK       SUNNY     70  61  73 SE9       30.28R
GRAND FORKS    PTSUNNY   63  59  87 NW5       30.32R
FARGO          PTSUNNY   64  59  84 N5        30.30R
BUFFALO SD     SUNNY     68  61  78 CALM      30.18R
RAPID CITY     PTSUNNY   72  59  64 SE6       30.24R
$$

REGIONAL REPORTS...WYOMING/IDAHO/WASHINGTON
CITY           SKY/WX    TMP DP  RH WIND       PRES   REMARKS
GILLETTE       CLOUDY    70  61  73 S18G28    30.27R
SHERIDAN       PTCLDY    70  59  68 S9        30.19S
CODY           PTCLDY    66  46  49 CALM      30.26S
YELLOWSTONE LA PTSUNNY   57  48  72 CALM      30.43R
SALMON         SUNNY     64  52  65 E3        30.21F
MULLAN PASS    PTCLDY    52  46  80 SE10G20   30.19S
SAND POINT     PTCLDY    63  54  73 NE15      30.06F
SPOKANE        PTCLDY    64  55  73 NE8       30.03F
$$

REGIONAL REPORTS...ALBERTA
CITY           SKY/WX    TMP DP  RH WIND       PRES   REMARKS
CALGARY        PTSUNNY   64  48  56 VRB2      30.10F
LETHBRIDGE     TSTM      57  54  90 VRB5      30.12R
MEDICINE HAT   CLOUDY    66  57  73 N7        30.09R
EDMONTON       PTCLDY    61  55  81 S5        30.00S
WATERTON GATE  N/A       57  52  83 SW12G17    N/A
CARDSTON       N/A       59  57  93 SW6        N/A
MILK RIVER     N/A       59  55  87 W1         N/A
$$

REGIONAL REPORTS...SASKATCHEWAN
CITY           SKY/WX    TMP DP  RH WIND       PRES   REMARKS
SWIFT CURRENT  SUNNY     66  59  78 N/A       30.18F
MOOSE JAW      PTCLDY    63  57  81 SE13      30.26R
REGINA         PTCLDY    64  57  78 SE13G20   30.27F
VAL MARIE      N/A       68  59  73 E5         N/A
ASSINIBOIA     N/A       64  59  84 E10        N/A
CORONACH       N/A       64  61  90 E12        N/A

$$



USA.gov is the U.S. government's official web portal to all federal, state and local government web resources and services.